����������;��������(kVARh)
2018-10-29 00:00;0,05
2018-10-29 00:15;1
2018-10-29 00:30;0,6
2018-10-29 00:45;1,55
2018-10-29 01:00;1,5
2018-10-29 01:15;1,4
2018-10-29 01:30;1,65
2018-10-29 01:45;3,25
2018-10-29 02:00;3,3
2018-10-29 02:15;2,3
2018-10-29 02:30;4,6
2018-10-29 02:45;4,7
2018-10-29 03:00;5
2018-10-29 03:15;4,8
2018-10-29 03:30;5,9
2018-10-29 03:45;5
2018-10-29 04:00;5,8
2018-10-29 04:15;4,9
2018-10-29 04:30;6,5
2018-10-29 04:45;9,6
2018-10-29 05:00;9,1
2018-10-29 05:15;9,3
2018-10-29 05:30;7,4
2018-10-29 05:45;8
2018-10-29 06:00;7,2
2018-10-29 06:15;6,2
2018-10-29 06:30;1,2
2018-10-29 06:45;1,15
2018-10-29 07:00;0,95
2018-10-29 07:15;0,9
2018-10-29 07:30;2,8
2018-10-29 07:45;6,9
2018-10-29 08:00;5,25
2018-10-29 08:15;4,75
2018-10-29 08:30;6,3
2018-10-29 08:45;6,45
2018-10-29 09:00;8,6
2018-10-29 09:15;10,45
2018-10-29 09:30;15,6
2018-10-29 09:45;22,15
2018-10-29 10:00;22,85
2018-10-29 10:15;23,25
2018-10-29 10:30;22,25
2018-10-29 10:45;25,05
2018-10-29 11:00;26,95
2018-10-29 11:15;27
2018-10-29 11:30;27,25
2018-10-29 11:45;24,3
2018-10-29 12:00;27,35
2018-10-29 12:15;29
2018-10-29 12:30;27,9
2018-10-29 12:45;28,8
2018-10-29 13:00;27,7
2018-10-29 13:15;27,7
2018-10-29 13:30;28,65
2018-10-29 13:45;27,25
2018-10-29 14:00;27,25
2018-10-29 14:15;28,35
2018-10-29 14:30;29,9
2018-10-29 14:45;28,45
2018-10-29 15:00;26,85
2018-10-29 15:15;27,2
2018-10-29 15:30;25,1
2018-10-29 15:45;25,3
2018-10-29 16:00;24,7
2018-10-29 16:15;24,4
2018-10-29 16:30;24,5
2018-10-29 16:45;20,15
2018-10-29 17:00;18,15
2018-10-29 17:15;12,95
2018-10-29 17:30;13,65
2018-10-29 17:45;11,9
2018-10-29 18:00;15,5
2018-10-29 18:15;16,9
2018-10-29 18:30;17,3
2018-10-29 18:45;16,8
2018-10-29 19:00;18,8
2018-10-29 19:15;16
2018-10-29 19:30;18,05
2018-10-29 19:45;16
2018-10-29 20:00;19,05
2018-10-29 20:15;18,75
2018-10-29 20:30;19,75
2018-10-29 20:45;18,35
2018-10-29 21:00;19,3
2018-10-29 21:15;18,55
2018-10-29 21:30;15,55
2018-10-29 21:45;9,3
2018-10-29 22:00;7,9
2018-10-29 22:15;6,7
2018-10-29 22:30;6,55
2018-10-29 22:45;3,95
2018-10-29 23:00;4,5
2018-10-29 23:15;2,9
2018-10-29 23:30;3
2018-10-29 23:45;4,6
2018-10-30 00:00;4
2018-10-30 00:15;5,8
2018-10-30 00:30;3,05
2018-10-30 00:45;2,15
2018-10-30 01:00;2,25
2018-10-30 01:15;2,9
2018-10-30 01:30;1,35
2018-10-30 01:45;2,4
2018-10-30 02:00;2,05
2018-10-30 02:15;2,8
2018-10-30 02:30;4
2018-10-30 02:45;5,65
2018-10-30 03:00;3,95
2018-10-30 03:15;5,55
2018-10-30 03:30;5,85
2018-10-30 03:45;6,8
2018-10-30 04:00;5,5
2018-10-30 04:15;6,4
2018-10-30 04:30;6,8
2018-10-30 04:45;7,4
2018-10-30 05:00;7
2018-10-30 05:15;6,8
2018-10-30 05:30;6
2018-10-30 05:45;3,7
2018-10-30 06:00;4,4
2018-10-30 06:15;2,45
2018-10-30 06:30;3,35
2018-10-30 06:45;2,2
2018-10-30 07:00;2
2018-10-30 07:15;0,2
2018-10-30 07:30;0,4
2018-10-30 07:45;6
2018-10-30 08:00;6,5
2018-10-30 08:15;12,3
2018-10-30 08:30;15,4
2018-10-30 08:45;16,1
2018-10-30 09:00;19,3
2018-10-30 09:15;21,35
2018-10-30 09:30;21,85
2018-10-30 09:45;23
2018-10-30 10:00;22,95
2018-10-30 10:15;20,1
2018-10-30 10:30;21,4
2018-10-30 10:45;21,6
2018-10-30 11:00;23,95
2018-10-30 11:15;25,5
2018-10-30 11:30;27,75
2018-10-30 11:45;28,05
2018-10-30 12:00;28,4
2018-10-30 12:15;27,1
2018-10-30 12:30;27,1
2018-10-30 12:45;27,35
2018-10-30 13:00;27,45
2018-10-30 13:15;26,2
2018-10-30 13:30;27,1
2018-10-30 13:45;25,65
2018-10-30 14:00;27,9
2018-10-30 14:15;28,35
2018-10-30 14:30;30,1
2018-10-30 14:45;29,4
2018-10-30 15:00;27,65
2018-10-30 15:15;27,25
2018-10-30 15:30;26,05
2018-10-30 15:45;25,15
2018-10-30 16:00;24,05
2018-10-30 16:15;23,4
2018-10-30 16:30;22,55
2018-10-30 16:45;21,4
2018-10-30 17:00;23,5
2018-10-30 17:15;23,9
2018-10-30 17:30;23,15
2018-10-30 17:45;18,95
2018-10-30 18:00;16,6
2018-10-30 18:15;14,1
2018-10-30 18:30;15,25
2018-10-30 18:45;13,35
2018-10-30 19:00;17,7
2018-10-30 19:15;16,1
2018-10-30 19:30;13,2
2018-10-30 19:45;13,65
2018-10-30 20:00;12,75
2018-10-30 20:15;15,85
2018-10-30 20:30;16,8
2018-10-30 20:45;17,7
2018-10-30 21:00;17,75
2018-10-30 21:15;18,6
2018-10-30 21:30;17,65
2018-10-30 21:45;17
2018-10-30 22:00;10,1
2018-10-30 22:15;7,5
2018-10-30 22:30;6,05
2018-10-30 22:45;7,45
2018-10-30 23:00;6,95
2018-10-30 23:15;8,05
2018-10-30 23:30;7,05
2018-10-30 23:45;8,75
2018-10-31 00:00;7,35
2018-10-31 00:15;7,85
2018-10-31 00:30;7,95
2018-10-31 00:45;9,05
2018-10-31 01:00;6,65
2018-10-31 01:15;6,85
2018-10-31 01:30;8,3
2018-10-31 01:45;8,45
2018-10-31 02:00;9,95
2018-10-31 02:15;9,9
2018-10-31 02:30;11,4
2018-10-31 02:45;11,3
2018-10-31 03:00;11,85
2018-10-31 03:15;12,3
2018-10-31 03:30;12,5
2018-10-31 03:45;11,75
2018-10-31 04:00;12,05
2018-10-31 04:15;12,6
2018-10-31 04:30;13,1
2018-10-31 04:45;12,3
2018-10-31 05:00;13,05
2018-10-31 05:15;12,05
2018-10-31 05:30;12,35
2018-10-31 05:45;12,35
2018-10-31 06:00;12
2018-10-31 06:15;9,55
2018-10-31 06:30;5,35
2018-10-31 06:45;5,3
2018-10-31 07:00;3,7
2018-10-31 07:15;4,5
2018-10-31 07:30;3,95
2018-10-31 07:45;8
2018-10-31 08:00;6,8
2018-10-31 08:15;6,6
2018-10-31 08:30;9,75
2018-10-31 08:45;10
2018-10-31 09:00;14,8
2018-10-31 09:15;22,8
2018-10-31 09:30;26,85
2018-10-31 09:45;27,25
2018-10-31 10:00;27,3
2018-10-31 10:15;28,75
2018-10-31 10:30;26,95
2018-10-31 10:45;27,55
2018-10-31 11:00;27,25
2018-10-31 11:15;29
2018-10-31 11:30;31,1
2018-10-31 11:45;31,55
2018-10-31 12:00;32,5
2018-10-31 12:15;31,85
2018-10-31 12:30;32,15
2018-10-31 12:45;31,55
2018-10-31 13:00;28,65
2018-10-31 13:15;28,3
2018-10-31 13:30;26,4
2018-10-31 13:45;27,4
2018-10-31 14:00;26,45
2018-10-31 14:15;24,65
2018-10-31 14:30;26,3
2018-10-31 14:45;28,45
2018-10-31 15:00;27,55
2018-10-31 15:15;24,8
2018-10-31 15:30;25,1
2018-10-31 15:45;21,9
2018-10-31 16:00;23,05
2018-10-31 16:15;21,9
2018-10-31 16:30;20,8
2018-10-31 16:45;18,75
2018-10-31 17:00;18,55
2018-10-31 17:15;19,5
2018-10-31 17:30;18,45
2018-10-31 17:45;19
2018-10-31 18:00;14,2
2018-10-31 18:15;14,3
2018-10-31 18:30;14,1
2018-10-31 18:45;16,45
2018-10-31 19:00;18,65
2018-10-31 19:15;17,65
2018-10-31 19:30;16,85
2018-10-31 19:45;15,9
2018-10-31 20:00;17,1
2018-10-31 20:15;16,15
2018-10-31 20:30;15,6
2018-10-31 20:45;17,55
2018-10-31 21:00;18,3
2018-10-31 21:15;16,05
2018-10-31 21:30;12,55
2018-10-31 21:45;9,8
2018-10-31 22:00;8,65
2018-10-31 22:15;9,05
2018-10-31 22:30;7,5
2018-10-31 22:45;9,2
2018-10-31 23:00;4,9
2018-10-31 23:15;3,65
2018-10-31 23:30;3,75
2018-10-31 23:45;6,75
2018-11-01 00:00;5,7
2018-11-01 00:15;5,3
2018-11-01 00:30;3,45
2018-11-01 00:45;7,1
2018-11-01 01:00;6,35
2018-11-01 01:15;7,1
2018-11-01 01:30;5,5
2018-11-01 01:45;6,9
2018-11-01 02:00;4,95
2018-11-01 02:15;7,5
2018-11-01 02:30;7,6
2018-11-01 02:45;8,15
2018-11-01 03:00;7,5
2018-11-01 03:15;9,05
2018-11-01 03:30;8,2
2018-11-01 03:45;7,95
2018-11-01 04:00;6,95
2018-11-01 04:15;8,6
2018-11-01 04:30;7,6
2018-11-01 04:45;8,5
2018-11-01 05:00;8,95
2018-11-01 05:15;7,6
2018-11-01 05:30;7,25
2018-11-01 05:45;8,3
2018-11-01 06:00;6,75
2018-11-01 06:15;8,4
2018-11-01 06:30;7,65
2018-11-01 06:45;7,3
2018-11-01 07:00;5,55
2018-11-01 07:15;6,05
2018-11-01 07:30;7,45
2018-11-01 07:45;12,9
2018-11-01 08:00;10,55
2018-11-01 08:15;12,2
2018-11-01 08:30;13,25
2018-11-01 08:45;15,35
2018-11-01 09:00;18,2
2018-11-01 09:15;18,75
2018-11-01 09:30;22,3
2018-11-01 09:45;21,8
2018-11-01 10:00;21,1
2018-11-01 10:15;24,05
2018-11-01 10:30;23,7
2018-11-01 10:45;24,7
2018-11-01 11:00;27,45
2018-11-01 11:15;31,35
2018-11-01 11:30;31,95
2018-11-01 11:45;31,2
2018-11-01 12:00;30,85
2018-11-01 12:15;31,7
2018-11-01 12:30;32,65
2018-11-01 12:45;34,15
2018-11-01 13:00;34,65
2018-11-01 13:15;35,1
2018-11-01 13:30;34,85
2018-11-01 13:45;34,2
2018-11-01 14:00;35,95
2018-11-01 14:15;35,1
2018-11-01 14:30;34,55
2018-11-01 14:45;30,55
2018-11-01 15:00;28,6
2018-11-01 15:15;28,1
2018-11-01 15:30;29,2
2018-11-01 15:45;27,8
2018-11-01 16:00;25,85
2018-11-01 16:15;25,05
2018-11-01 16:30;24,65
2018-11-01 16:45;23,75
2018-11-01 17:00;22,5
2018-11-01 17:15;24,3
2018-11-01 17:30;24,8
2018-11-01 17:45;25,4
2018-11-01 18:00;22,3
2018-11-01 18:15;22,85
2018-11-01 18:30;21,5
2018-11-01 18:45;23,8
2018-11-01 19:00;21,4
2018-11-01 19:15;20,95
2018-11-01 19:30;19,8
2018-11-01 19:45;19,1
2018-11-01 20:00;12,7
2018-11-01 20:15;7,75
2018-11-01 20:30;9,3
2018-11-01 20:45;6,7
2018-11-01 21:00;6,95
2018-11-01 21:15;3,9
2018-11-01 21:30;0,2
2018-11-01 21:45;0
2018-11-01 22:00;0
2018-11-01 22:15;0
2018-11-01 22:30;0,3
2018-11-01 22:45;0,1
2018-11-01 23:00;0,15
2018-11-01 23:15;0,05
2018-11-01 23:30;0,75
2018-11-01 23:45;1,15
2018-11-02 00:00;0,45
2018-11-02 00:15;0,4
2018-11-02 00:30;1,45
2018-11-02 00:45;1,95
2018-11-02 01:00;2,05
2018-11-02 01:15;1,5
2018-11-02 01:30;1,6
2018-11-02 01:45;2,45
2018-11-02 02:00;2,75
2018-11-02 02:15;3,8
2018-11-02 02:30;4,3
2018-11-02 02:45;4,85
2018-11-02 03:00;4,25
2018-11-02 03:15;6,5
2018-11-02 03:30;6,15
2018-11-02 03:45;6
2018-11-02 04:00;6,65
2018-11-02 04:15;7,8
2018-11-02 04:30;5,9
2018-11-02 04:45;7,6
2018-11-02 05:00;10,95
2018-11-02 05:15;9,2
2018-11-02 05:30;10,25
2018-11-02 05:45;9,4
2018-11-02 06:00;7,5
2018-11-02 06:15;7,25
2018-11-02 06:30;4,95
2018-11-02 06:45;5,5
2018-11-02 07:00;2,45
2018-11-02 07:15;3,8
2018-11-02 07:30;4,4
2018-11-02 07:45;6,3
2018-11-02 08:00;5,75
2018-11-02 08:15;3,8
2018-11-02 08:30;5,4
2018-11-02 08:45;12,55
2018-11-02 09:00;15,15
2018-11-02 09:15;15,5
2018-11-02 09:30;15
2018-11-02 09:45;15,9
2018-11-02 10:00;23,5
2018-11-02 10:15;26
2018-11-02 10:30;26,6
2018-11-02 10:45;26,75
2018-11-02 11:00;29,9
2018-11-02 11:15;33
2018-11-02 11:30;33,4
2018-11-02 11:45;32
2018-11-02 12:00;31,7
2018-11-02 12:15;31,25
2018-11-02 12:30;31,5
2018-11-02 12:45;31,2
2018-11-02 13:00;32
2018-11-02 13:15;32,5
2018-11-02 13:30;32,5
2018-11-02 13:45;30,85
2018-11-02 14:00;31,75
2018-11-02 14:15;35,25
2018-11-02 14:30;34,85
2018-11-02 14:45;34,6
2018-11-02 15:00;33,45
2018-11-02 15:15;32,95
2018-11-02 15:30;32,95
2018-11-02 15:45;31,4
2018-11-02 16:00;31,05
2018-11-02 16:15;30,5
2018-11-02 16:30;30,9
2018-11-02 16:45;29,1
2018-11-02 17:00;25,9
2018-11-02 17:15;25,15
2018-11-02 17:30;25,65
2018-11-02 17:45;22,25
2018-11-02 18:00;21,35
2018-11-02 18:15;23,4
2018-11-02 18:30;21,75
2018-11-02 18:45;22,8
2018-11-02 19:00;22,85
2018-11-02 19:15;21,3
2018-11-02 19:30;20,1
2018-11-02 19:45;21,15
2018-11-02 20:00;20,1
2018-11-02 20:15;16,35
2018-11-02 20:30;15,35
2018-11-02 20:45;15,05
2018-11-02 21:00;14,15
2018-11-02 21:15;15,85
2018-11-02 21:30;15,6
2018-11-02 21:45;12,8
2018-11-02 22:00;9,55
2018-11-02 22:15;0,55
2018-11-02 22:30;0
2018-11-02 22:45;0
2018-11-02 23:00;0
2018-11-02 23:15;0
2018-11-02 23:30;0,1
2018-11-02 23:45;0
2018-11-03 00:00;0
2018-11-03 00:15;0
2018-11-03 00:30;0
2018-11-03 00:45;0,1
2018-11-03 01:00;0
2018-11-03 01:15;0
2018-11-03 01:30;0
2018-11-03 01:45;0
2018-11-03 02:00;0,45
2018-11-03 02:15;0,15
2018-11-03 02:30;0,5
2018-11-03 02:45;0,4
2018-11-03 03:00;0,3
2018-11-03 03:15;1,4
2018-11-03 03:30;1,35
2018-11-03 03:45;1,55
2018-11-03 04:00;1,05
2018-11-03 04:15;0,9
2018-11-03 04:30;0,4
2018-11-03 04:45;0,95
2018-11-03 05:00;1,35
2018-11-03 05:15;1,1
2018-11-03 05:30;1,35
2018-11-03 05:45;0,8
2018-11-03 06:00;0,2
2018-11-03 06:15;0,35
2018-11-03 06:30;0
2018-11-03 06:45;0,4
2018-11-03 07:00;0,5
2018-11-03 07:15;0,9
2018-11-03 07:30;2,55
2018-11-03 07:45;2,65
2018-11-03 08:00;4,05
2018-11-03 08:15;2,25
2018-11-03 08:30;1,45
2018-11-03 08:45;0,25
2018-11-03 09:00;0,05
2018-11-03 09:15;0
2018-11-03 09:30;0
2018-11-03 09:45;0
2018-11-03 10:00;0
2018-11-03 10:15;0,05
2018-11-03 10:30;0
2018-11-03 10:45;0
2018-11-03 11:00;0,05
2018-11-03 11:15;0,05
2018-11-03 11:30;0
2018-11-03 11:45;0,25
2018-11-03 12:00;0
2018-11-03 12:15;0
2018-11-03 12:30;0
2018-11-03 12:45;0
2018-11-03 13:00;0
2018-11-03 13:15;0
2018-11-03 13:30;0
2018-11-03 13:45;0
2018-11-03 14:00;0,65
2018-11-03 14:15;0,85
2018-11-03 14:30;0,9
2018-11-03 14:45;1,9
2018-11-03 15:00;3
2018-11-03 15:15;3
2018-11-03 15:30;5,4
2018-11-03 15:45;2,6
2018-11-03 16:00;5,1
2018-11-03 16:15;4,8
2018-11-03 16:30;5,35
2018-11-03 16:45;6,75
2018-11-03 17:00;7,5
2018-11-03 17:15;8,25
2018-11-03 17:30;5,35
2018-11-03 17:45;5,25
2018-11-03 18:00;5,25
2018-11-03 18:15;8,85
2018-11-03 18:30;8,85
2018-11-03 18:45;10,8
2018-11-03 19:00;10,75
2018-11-03 19:15;11,55
2018-11-03 19:30;10,8
2018-11-03 19:45;11,2
2018-11-03 20:00;12,35
2018-11-03 20:15;9,35
2018-11-03 20:30;8,1
2018-11-03 20:45;7,4
2018-11-03 21:00;4,65
2018-11-03 21:15;5,35
2018-11-03 21:30;5,55
2018-11-03 21:45;4
2018-11-03 22:00;5,5
2018-11-03 22:15;1,8
2018-11-03 22:30;0,25
2018-11-03 22:45;0,2
2018-11-03 23:00;0,75
2018-11-03 23:15;0,85
2018-11-03 23:30;0,6
2018-11-03 23:45;1,5
2018-11-04 00:00;1,3
2018-11-04 00:15;1,25
2018-11-04 00:30;1,75
2018-11-04 00:45;0,8
2018-11-04 01:00;1,4
2018-11-04 01:15;1,35
2018-11-04 01:30;2,15
2018-11-04 01:45;1,35
2018-11-04 02:00;2,5
2018-11-04 02:15;2,45
2018-11-04 02:30;3,2
2018-11-04 02:45;3,65
2018-11-04 03:00;4,65
2018-11-04 03:15;4,05
2018-11-04 03:30;5,55
2018-11-04 03:45;5,9
2018-11-04 04:00;5,1
2018-11-04 04:15;5,15
2018-11-04 04:30;4,2
2018-11-04 04:45;5,3
2018-11-04 05:00;5,35
2018-11-04 05:15;3,6
2018-11-04 05:30;3,85
2018-11-04 05:45;3,45
2018-11-04 06:00;4,5
2018-11-04 06:15;4,7
2018-11-04 06:30;5,2
2018-11-04 06:45;5,9
2018-11-04 07:00;6,7
2018-11-04 07:15;6,7
2018-11-04 07:30;6,5
2018-11-04 07:45;7,1
2018-11-04 08:00;3,65
2018-11-04 08:15;2,05
2018-11-04 08:30;2,65
2018-11-04 08:45;1,95
2018-11-04 09:00;1,1
2018-11-04 09:15;0,5
2018-11-04 09:30;0
2018-11-04 09:45;0,1
2018-11-04 10:00;0
2018-11-04 10:15;0,05
2018-11-04 10:30;0
2018-11-04 10:45;0
2018-11-04 11:00;0,05
2018-11-04 11:15;2,7
2018-11-04 11:30;2,2
2018-11-04 11:45;2,25
2018-11-04 12:00;2,4
2018-11-04 12:15;1,85
2018-11-04 12:30;2,05
2018-11-04 12:45;2,05
2018-11-04 13:00;2,5
2018-11-04 13:15;4,2
2018-11-04 13:30;3,5
2018-11-04 13:45;2
2018-11-04 14:00;1,85
2018-11-04 14:15;6,75
2018-11-04 14:30;8,25
2018-11-04 14:45;8,1
2018-11-04 15:00;8,7
2018-11-04 15:15;8,9
2018-11-04 15:30;9,05
2018-11-04 15:45;10,4
2018-11-04 16:00;5,7
2018-11-04 16:15;5,25
2018-11-04 16:30;4,7
2018-11-04 16:45;4,15
2018-11-04 17:00;4,55
2018-11-04 17:15;2,25
2018-11-04 17:30;1,4
2018-11-04 17:45;1,35
2018-11-04 18:00;2,6
2018-11-04 18:15;2,85
2018-11-04 18:30;1,95
2018-11-04 18:45;3,05
2018-11-04 19:00;3,25
2018-11-04 19:15;3,05
2018-11-04 19:30;2,5
2018-11-04 19:45;2,45
2018-11-04 20:00;2,45
2018-11-04 20:15;3,5
2018-11-04 20:30;3,3
2018-11-04 20:45;2,95
2018-11-04 21:00;3,35
2018-11-04 21:15;3,15
2018-11-04 21:30;2
2018-11-04 21:45;1,85
2018-11-04 22:00;2,1
2018-11-04 22:15;1,05
2018-11-04 22:30;0
2018-11-04 22:45;0
2018-11-04 23:00;0
2018-11-04 23:15;0
2018-11-04 23:30;0
2018-11-04 23:45;0,15

